Terug naar catalogus

STARLINK-2534

ActiefCommunicatieVLEO
NORAD 48311·PAYLOAD·🇺🇸 United States

Gelanceerd Apr 29, 2021 vanaf Cape Canaveral Space Force Station

Loading…

Volgende Passages (komende 24 uur)

TLE

VersSource: CelesTrak SupGP

Epoch: Sep 14, 2026, 12:55 UTC

1 48311C 21036AM  26257.53868056  .00051764  00000+0  16645-2 0  2575
2 48311  53.1568 289.8032 0001176  78.6348  13.4990 15.31676794    16

Volg STARLINK-2534 in realtime met AllMySat

Download on the App Store